Regional Weather Roundup
Issued by NWS

Home | Current Version | Previous Version | Text Only | Print | Product List | Glossary On
Versions: 1 2 3 4 5 6 7 8 9 10 11 12 13 14 15 16 17 18 19 20 21 22 23 24 25 26 27 28 29 30 31 32 33 34 35 36 37 38 39 40 41 42 43 44 45 46 47 48 49 50
000
ASUS46 KSTO 030915
RWRCA

NORTHERN AND CENTRAL CA REGIONAL WEATHER ROUNDUP
NATIONAL WEATHER SERVICE SACRAMENTO CA
100 AM PST SAT DEC 03 2016

NOTE: FAIR INDICATES FEW OR NO CLOUDS BELOW 12,000 FEET WITH NO
SIGNIFICANT WEATHER AND/OR OBSTRUCTIONS TO VISIBILITY.

CAZ001-003-031000-
NORTHWEST AREA

CITY           SKY/WX    TMP DP  RH WIND       PRES   REMARKS
CRESCENT CITY  CLOUDY    48  41  76 E5        30.37S
UKIAH          CLEAR     38  36  92 CALM      30.28R
$$

CAZ006-505>513-031000-
BAY AREA

CITY           SKY/WX    TMP DP  RH WIND       PRES   REMARKS
SANTA ROSA     NOT AVBL
SAN RAFAEL     N/A       52  MM  MM MISG
NAPA           CLEAR     49  36  61 W8        30.22R
CONCORD        NOT AVBL
OAKLAND CITY   N/A       51  MM  MM MISG
OAKLAND        NOT AVBL
SAN FRAN CITY  N/A       52  MM  59 MISG
SAN FRAN ARPT  CLEAR     50  36  58 S3        30.23R
HAYWARD        CLEAR     46  29  51 E6        30.22F
REDWOOD CITY   N/A       42  MM  81 MISG
MOFFETT ARPT   CLEAR     46  34  62 SW3       30.23F
$$
CAZ034-037-514>518-031000-
CENTRAL COAST

CITY           SKY/WX    TMP DP  RH WIND       PRES   REMARKS
MONTEREY       CLEAR     46  27  47 E7        30.22S
SAN LUIS OBISP CLEAR     48  31  51 N6        30.19F
SANTA MARIA    CLEAR     42  35  76 CALM      30.18S
$$
CAZ015-016-031000-
NORTHERN SACRAMENTO VALLEY

CITY           SKY/WX    TMP DP  RH WIND       PRES   REMARKS
RED BLUFF      PTCLDY    45  34  65 NW6       30.25S
$$
CAZ016>018-031000-
SOUTHERN SACRAMENTO VALLEY

CITY           SKY/WX    TMP DP  RH WIND       PRES   REMARKS
AUBURN         PTCLDY    41  28  60 SE3       30.22R
BEALE AFB      PTCLDY    40  31  70 SE8       30.22R WCI  35
LINCOLN        FAIR      41  32  70 CALM      30.23R
MATHER AIRPORT NOT AVBL
TRAVIS AFB     CLEAR     45  31  59 E3        30.21R
$$
CAZ019>021-031000-
SAN JOAQUIN VALLEY

CITY           SKY/WX    TMP DP  RH WIND       PRES   REMARKS
LEMOORE        CLEAR     35  31  85 SE7       30.24S WCI  29
HANFORD        FOG       34  34 100 CALM      30.24S VSB 1/4
PORTERVILLE    CLEAR     37  34  89 E7        30.25S WCI  32
$$
CAZ011-012-071-031000-
NORTHERN MOUNTAINS

CITY           SKY/WX    TMP DP  RH WIND       PRES   REMARKS
$$
CAZ011-012-071-031000-
SIERRA NEVADA MTNS

CITY           SKY/WX    TMP DP  RH WIND       PRES   REMARKS
BLUE CANYON    PTCLDY    46  25  43 N5        30.24
TRUCKEE        CLEAR     14  10  85 CALM      30.32S
MAMMOTH LAKES  FAIR      18  -5  36 N6        30.28S WCI  10
$$




USA.gov is the U.S. government's official web portal to all federal, state and local government web resources and services.